Weather in Krechetovo

Russia / Arkhangel'skaya Oblast'     60°56′50″N   38°30′39″E
temp.,
°C
wind,
m/s
gust,
m/s
humid.,
%
clouds,
%
prec.,
mm/h
press.,
hPa
HPBL,
m
16 may, sun
sun1600:00+14ese2698100 2.6 1004218
03:00+14s3796100 5.6 1003238
06:00+13s2798100 3.1 1003293
09:00+15sw478882 3.7 1004603
12:00+18sw4672100 0.4 10051112
15:00+17wsw4780100 1.9 1006987
18:00+15w3690100 1.5 1007575
21:00+13wnw2397100 2.0 100992
17 may, mon
mon1700:00+12nnw1399100 0.2 1010118
03:00+11n2498100 0.3 1012167
06:00+11nne24949 0.0 1015177
09:00+15se23744 0.0 1017663
12:00+20ese345332 0.0 10161274
15:00+20sse3456100 0.0 10171237
18:00+19se2467100 0.0 1016538
21:00+15ese278596 0.0 1016128
18 may, tue
tue1800:00+13se2109373 0.0 1016193
03:00+12ese3129656 0.0 1016286
06:00+15se4148110 0.0 1015524
09:00+20se5106449 0.0 1014714
12:00+24se595012 0.0 10131103
15:00+27sse511415 0.0 10122403
18:00+25sse511449 0.0 10111362
21:00+20se5156159 0.0 1011705
19 may, wed
wed1900:00+18se41480100 0.0 1011522
03:00+16sse4128795 0.0 1011347
06:00+17se3118241 0.0 1011376
09:00+22sse5959100 0.0 1010588
12:00+27sse611367 0.0 10091335
15:00+29sse512345 0.0 10093234
18:00+26sse6134279 0.0 10091959
21:00+21sse414565 0.0 1009628
20 may, thu
thu2000:00+19sse416630 0.0 1009590
03:00+15sse39884 0.5 1010200
06:00+17sse3108724 0.0 1009382
09:00+21sse51066100 0.0 1008846
12:00+25sse59485 0.0 10071559
15:00+27sse6124124 0.0 10052811
18:00+21s51271100 0.6 10041240
21:00+16sse4108929 2.4 1005649